Location: Combronde
(45.9814°N, 3.0877°E)
Time: 23:08:09
(UTC+00:00)

Daily predictions for brighter satellites

Satellite Brightness Start Highest point End
(mag) Time Altitude Azimuth Time Altitude Azimuth Time Altitude Azimuth
Cosmos 1943 4.0 19:26:56 10° NW 19:32:25 53° WSW 19:37:53 10° S
Cosmos 1606 3.1 19:31:12 10° SSE 19:34:45 42° E 19:38:21 10° NNE
Helios 1A Rocket 3.9 19:31:26 10° S 19:35:28 51° W 19:39:32 10° NNW
Cosmos 1844 Rocket 3.1 19:31:18 10° S 19:36:27 41° ESE 19:41:40 10° NE
Cosmos 1814 Rocket 4.4 19:32:47 10° NNW 19:38:00 66° WSW 19:43:06 10° S
SL-4 R/B 2.3 19:36:19 10° WNW 19:40:40 80° SSW 19:45:18 10° SE
Cosmos 1805 Rocket 4.1 19:38:41 10° N 19:42:47 39° ENE 19:46:53 10° SE
X-37B 0.6 19:40:49 10° W 19:44:00 75° S 19:47:11 10° E
IRS-1A Rocket 4.4 19:45:18 10° SSE 19:51:03 84° ENE 19:56:57 10° NNW
Cosmos 1745 Rocket 4.2 19:45:44 10° N 19:51:49 53° ENE 19:57:48 10° SSE
SPOT 3 Rocket 4.0 19:49:30 10° SE 19:54:25 46° ENE 19:59:20 10° N
ERS-2 3.5 19:51:17 10° N 19:54:45 43° WNW 19:58:13 10° SW
Resurs 1-3 3.6 19:52:09 10° SSE 19:56:31 81° ENE 20:00:56 10° N
Cosmos 1844 3.9 19:51:08 10° S 19:56:37 49° ESE 20:02:05 10° NE
Cosmos 1743 Rocket 3.6 19:52:36 10° N 19:56:58 82° W 20:01:19 10° S
Landsat 7 4.5 19:52:46 10° SE 19:57:12 40° ENE 20:01:39 10° N
Cosmos 968 Rocket 3.5 19:52:14 10° S 19:57:27 70° ESE 20:02:40 10° NNE
BREEZE-M DEB (TANK) 3.8 19:53:50 10° W 19:58:07 81° SSW 20:05:45 10° ESE
ATLAS 5 CENTAUR R/B 2.9 19:54:35 10° NNW 19:59:51 47° NE 20:05:41 12° ESE
BREEZE M DEB (TANK) 4.0 20:00:09 10° WSW 20:03:46 82° NNW 20:15:42 10° ENE
Cosmos 1486 Rocket 4.0 19:59:43 10° S 20:04:58 66° ESE 20:10:17 10° NNE
Intercosmos 25 Rocket 4.1 19:59:28 10° N 20:06:22 87° E 20:10:33 10° S
IGS 5A 3.7 20:04:31 11° SSE 20:08:21 54° ENE 20:12:25 10° N
Cosmos 1500 Rocket 4.1 20:04:34 10° NNW 20:08:55 60° W 20:13:12 10° S
Cosmos 1833 Rocket 4.3 20:05:04 10° N 20:09:29 23° NE 20:13:51 10° E
Cosmos 2221 4.1 20:06:42 10° SW 20:10:43 39° WNW 20:14:49 10° N
S3M 4.1 20:05:04 10° S 20:11:23 68° E 20:17:41 10° NNE
BREEZE-M R/B 1.7 20:09:32 10° SW 20:12:12 55° SSE 20:14:37 10° ENE
USA 186 4.3 20:11:36 10° SW 20:12:58 13° W 20:14:17 10° WNW
Cosmos 1666 Rocket 4.1 20:12:43 10° N 20:16:54 41° ENE 20:19:58 17° SE
FALCON 9 DEB 4.4 20:15:34 10° W 20:18:07 25° SW 20:20:03 14° S
Cosmos 1933 3.4 20:17:49 10° S 20:21:49 61° E 20:25:48 10° NNE
USA 245 3.4 20:23:48 21° E 20:24:12 22° ENE 20:26:04 10° NNE
Cosmos 1242 Rocket 2.6 20:24:03 12° S 20:27:21 56° E 20:30:51 10° NNE
OBJECT-B 3.5 20:25:16 10° SW 20:27:35 18° W 20:29:56 10° NW
Cosmos 1553 Rocket 4.5 20:24:02 10° SSW 20:30:05 63° WNW 20:36:17 10° N
Cosmos 1437 Rocket 3.4 20:27:32 10° SSW 20:31:19 55° WNW 20:35:13 10° N
BREEZE M DEB (TANK) 3.0 20:26:20 10° WNW 20:31:59 49° N 20:34:07 13° ENE
Resurs 01 Rocket 1.8 20:29:42 11° S 20:33:54 71° WSW 20:38:21 10° NNW
Spot 2 Rocket 3.8 20:34:12 20° SE 20:37:31 51° ENE 20:42:24 10° N
OE (NEXTSAT) 4.3 20:34:10 10° W 20:37:39 87° N 20:39:57 20° E
SJ 16-02 3.2 20:38:19 14° E 20:38:19 14° E 20:40:25 10° ENE
DELTA 2 R/B (1) 4.3 20:33:50 10° W 20:38:56 37° SSW 20:41:51 22° SE
Sich 1 3.3 20:34:57 10° NNW 20:39:15 69° W 20:43:00 13° S
COSMOS 2406 4.2 20:35:01 10° NNW 20:40:11 35° NE 20:43:43 18° ESE
Meteor 1-20 Rocket 4.3 20:36:42 10° NNW 20:42:21 78° W 20:47:10 14° S
Cosmos 2082 Rocket 3.9 20:38:25 10° N 20:42:41 22° NE 20:46:28 12° E
USA 306 4.5 20:39:01 10° NW 20:42:51 31° NNE 20:46:41 10° ENE
CZ-4C R/B 3.4 20:38:19 10° NNW 20:45:12 53° NE 20:51:18 18° ESE
Cosmos 1782 2.8 20:43:16 20° S 20:45:53 62° E 20:49:50 10° NNE
Cosmos 1500 3.8 20:42:21 10° N 20:45:55 38° ENE 20:47:10 29° ESE
ERS-1 Rocket 3.4 20:50:52 25° SE 20:53:28 47° ENE 20:58:17 10° N
SPOT 5 3.4 20:52:52 26° SE 20:55:27 48° ENE 21:00:29 10° N
Cosmos 1503 Rocket 4.0 20:50:38 10° SSW 20:55:48 81° WNW 21:01:03 10° NNE
Cosmos 1271 Rocket 4.3 21:00:22 21° E 21:00:22 21° E 21:03:23 10° NE
Cosmos 1151 Rocket 3.0 20:58:02 17° S 21:01:19 88° W 21:05:43 10° N
Cosmos 1777 Rocket 4.2 20:58:39 24° SSE 21:01:25 47° ESE 21:06:24 10° NNE
USA 290 3.4 20:58:36 10° NW 21:01:39 37° WSW 21:02:58 25° SSW
Terra 2.5 21:02:22 28° ESE 21:04:16 40° ENE 21:08:44 10° N
Cosmos 1602 4.1 21:00:29 10° NNW 21:04:17 61° W 21:06:20 26° SSW
Cosmos 2278 Rocket 2.7 21:05:44 28° SSE 21:07:56 40° ESE 21:13:11 10° NE
USA 307 4.2 21:04:23 10° NW 21:08:20 36° NNE 21:11:25 15° ENE
CZ-2C R/B 4.3 21:08:18 10° N 21:12:40 56° WNW 21:17:05 10° SSW
Cosmos 1515 Rocket 3.5 21:17:35 39° SSE 21:19:02 65° E 21:23:25 10° NNE
SL-4 R/B 4.1 21:16:41 10° W 21:19:54 19° SW 21:21:08 17° SSW
SPOT 1/Viking Rocket 4.1 21:16:46 21° S 21:20:10 53° W 21:25:16 10° NNW
Cosmos 1844 Rocket 4.3 21:15:22 10° WSW 21:20:25 35° NW 21:25:31 10° NNE
X-37B 1.0 21:17:25 10° W 21:20:09 48° SW 21:20:09 48° SW
Cosmos 2084 3.2 21:17:53 20° SSW 21:20:39 70° SE 21:24:52 10° NE
USA 308 4.0 21:17:50 10° NW 21:21:54 39° NNE 21:24:24 20° ENE
SWARM C 4.5 21:19:04 10° N 21:22:24 81° W 21:22:52 62° SSW
SWARM A 4.2 21:19:11 10° N 21:22:31 77° W 21:23:01 60° SSW
ARIANE 5 R/B 2.8 21:20:39 32° S 21:22:32 64° WSW 21:26:51 10° NNW
Cosmos 1536 4.3 21:20:12 10° NNE 21:23:29 23° ENE 21:23:48 23° E
Meteor 1-10 Rocket 4.4 21:22:59 35° SSE 21:24:57 51° E 21:30:24 10° NNE
Cosmos 1437 2.9 21:25:46 52° W 21:25:58 54° WNW 21:28:47 10° N
JB-3 4.4 21:22:27 10° N 21:26:23 75° WNW 21:27:56 35° SSW
Cosmos 1633 Rocket 4.1 21:24:55 10° NNW 21:29:04 42° W 21:31:23 23° SSW
Cosmos 2154 Rocket 4.5 21:24:35 10° N 21:30:41 46° ENE 21:33:03 33° SE
Cosmos 1812 2.6 21:31:31 51° SSW 21:32:26 85° W 21:36:19 10° N
Cosmos 1470 Rocket 4.0 21:33:57 10° NNW 21:38:22 59° W 21:39:56 37° SSW
Cosmos 2184 Rocket 3.9 21:32:32 10° N 21:38:48 75° E 21:41:19 38° SSE
Meteor 1-5 Rocket 4.1 21:34:32 10° NNW 21:39:58 80° W 21:42:00 39° S
NOSS 3-4 (A) 4.1 21:36:08 10° NW 21:42:59 61° NE 21:47:02 29° ESE
NOSS 3-4 (C) 4.1 21:36:14 10° NW 21:43:05 61° NE 21:47:09 29° ESE
ATLAS 5 CENTAUR R/B 3.2 21:39:11 10° NW 21:44:35 41° WSW 21:47:13 28° SSW
Cosmos 2074 Rocket 3.9 21:40:26 10° N 21:46:47 88° E 21:49:23 39° S
NOSS 3-3 (A) 4.2 21:45:54 10° SW 21:51:39 67° NW 21:58:17 10° NE
NOSS 3-3 (C) 4.2 21:46:00 10° SW 21:51:45 68° NW 21:58:23 10° NE
Cosmos 1666 2.7 21:48:19 10° NNW 21:52:02 67° W 21:52:11 66° WSW
Cosmos 1933 Rocket 3.8 21:48:38 10° NNW 21:52:56 62° W 21:53:49 50° SSW
Nadezhda 1 Rocket 4.0 21:51:52 42° SSE 21:53:59 64° E 22:00:11 10° NNE
Cosmos 1833 Rocket 2.7 21:48:21 10° NNW 21:54:00 73° WSW 21:55:41 46° S
ATLAS 2AS CENTAUR R/B 3.5 21:49:19 10° NNW 21:56:32 48° NE 22:00:31 24° ESE
Meteor 2-12 Rocket 4.3 21:51:00 10° N 21:57:06 78° E 21:59:02 46° SSE
Cosmos 1743 4.1 21:53:54 10° NNE 21:56:52 27° ENE 21:56:52 27° ENE
BREEZE-M DEB (TANK) 3.8 21:57:19 10° WNW 21:57:58 18° WNW 21:57:58 18° WNW
USA 215 4.3 21:55:47 10° E 22:01:52 43° NNE 22:07:57 10° NW
Cosmos 1538 Rocket 4.2 21:57:16 10° NNW 22:02:37 66° WSW 22:03:56 49° SSW
USA 305 3.1 21:59:52 10° NW 22:04:07 64° NNE 22:04:41 57° ENE
Iridium 4 Rocket 4.1 22:01:48 32° SSW 22:04:24 62° W 22:10:16 10° N
Cosmos 1610 Rocket 4.4 22:02:40 10° N 22:08:51 84° E 22:10:38 49° SSE
Cosmos 158 Rocket 3.7 22:10:01 10° NNW 22:14:54 82° WSW 22:15:27 69° S
SJ 16-02 1.7 22:15:15 50° WSW 22:16:09 63° WNW 22:20:35 10° NNE
Cosmos 1733 Rocket 4.1 22:12:15 10° N 22:16:02 33° ENE 22:16:02 33° ENE
Cosmos 2228 Rocket 3.1 22:17:34 65° WSW 22:18:00 72° W 22:22:28 10° N
Meteor 1-27 Rocket 3.7 22:18:38 51° S 22:20:12 90° SSE 22:26:09 10° N
Cosmos 1680 Rocket 3.6 22:15:17 10° NNW 22:20:35 63° ENE 22:21:27 55° ESE
Cosmos 2341 Rocket 4.3 22:15:14 10° N 22:21:33 58° ENE 22:23:08 46° SE
USA 306 2.9 22:18:59 10° NW 22:23:05 79° NNW 22:23:05 79° NNW
Cosmos 1937 Rocket 4.4 22:24:06 33° E 22:24:06 33° E 22:28:06 10° NE
COSMOS 2406 3.9 22:19:16 10° NW 22:24:35 42° WSW 22:25:47 37° SW
Cosmos 2082 Rocket 2.1 22:21:47 10° NNW 22:27:24 76° WSW 22:28:19 62° S
CZ-4C R/B 3.5 22:26:53 10° NW 22:33:58 49° WSW 22:36:28 38° SSW
Cosmos 1271 Rocket 4.2 22:35:28 30° W 22:36:06 32° WNW 22:39:43 10° N
Cosmos 2218 Rocket 4.3 22:34:38 10° N 22:40:47 54° ENE 22:42:06 46° ESE
Terra 3.4 22:41:15 23° WSW 22:42:09 25° W 22:46:04 10° NW
Okean 1 4.2 22:46:34 42° NE 22:46:34 42° NE 22:49:29 10° NNE
USA 307 3.6 22:44:20 10° WNW 22:47:31 48° WNW 22:47:31 48° WNW
Cosmos 1340 Rocket 3.4 22:46:14 10° NNW 22:49:40 54° NW 22:49:40 54° NW
Cosmos 2278 Rocket 3.5 22:47:29 13° WSW 22:52:03 36° NW 22:57:17 10° NNE
Spot 4 3.7 22:53:27 84° WSW 22:53:30 84° WSW 22:58:24 10° NNW
Cosmos 923 Rocket 4.3 22:50:34 10° NNW 22:55:39 52° WSW 22:55:53 51° WSW
Cosmos 1862 Rocket 4.0 22:57:00 54° NE 22:57:00 54° NE 23:00:32 10° NNE
Cosmos 1898 Rocket 3.4 22:57:39 78° SSW 22:58:02 87° WNW 23:03:24 10° NNE
Cosmos 1536 4.3 22:56:21 10° NNW 22:59:30 29° W 22:59:30 29° W
USA 308 4.1 22:57:50 10° WNW 23:00:30 35° WNW 23:00:30 35° WNW
Cosmos 2369 Rocket 3.2 23:03:27 32° E 23:03:27 32° E 23:07:49 10° NE
COBE Rocket 4.1 23:07:04 59° E 23:07:16 60° ENE 23:12:19 10° N
Meteor 2-9 Rocket 4.1 23:04:10 10° N 23:10:01 86° E 23:10:35 74° SSE
SL-8 Rocket 3.9 23:04:08 10° N 23:10:29 81° W 23:11:34 63° SSW
Cosmos 1943 Rocket 2.0 23:11:55 72° ESE 23:12:01 73° ESE 23:17:38 10° NNE
Cosmos 1975 3.7 23:09:12 10° N 23:12:12 47° NNE 23:12:12 47° NNE
Cosmos 2084 Rocket 4.0 23:09:25 10° NNW 23:13:20 55° NNE 23:13:20 55° NNE
ALOS 2 2.8 23:16:05 67° NNW 23:16:05 67° NNW 23:19:56 10° NNW
DNEPR-1 R/B 4.0 23:19:57 76° ESE 23:19:57 76° ESE 23:24:58 10° NE
Meteor 2-4 Rocket 3.9 23:20:31 59° ESE 23:20:48 60° E 23:26:24 10° NNE
Cosmos 44 3.4 23:15:26 10° NW 23:20:48 80° WSW 23:20:48 80° WSW
Okean 1-7 4.0 23:30:15 40° NE 23:30:15 40° NE 23:33:26 10° NNE
Cosmos 372 Rocket 3.9 23:30:36 71° ENE 23:30:36 71° ENE 23:35:22 10° NNE
Meteor 1-18 Rocket 4.2 23:33:04 67° WSW 23:33:38 73° WNW 23:39:16 10° N
Cosmos 1238 Rocket 4.3 23:29:56 10° NNW 23:35:59 48° W 23:36:39 46° WSW
SL-24 R/B - RUBIN 2 4.4 23:32:55 10° NW 23:37:29 51° W 23:37:29 51° W
Cosmos 1656 Rocket 4.4 23:39:04 39° E 23:39:04 39° E 23:43:43 10° NE
SeaSat 1 2.8 23:34:02 10° NE 23:38:19 54° E 23:38:19 54° E
Cosmos 2242 Rocket 4.0 23:40:22 57° NE 23:40:22 57° NE 23:44:03 10° NNE
USA 215 3.1 23:42:20 46° SE 23:44:31 89° SW 23:51:06 10° NW
Cosmos 2297 4.4 23:45:51 39° W 23:47:23 49° WNW 23:52:53 10° NNE
ATLAS 2AS CENTAUR R/B 3.0 23:40:37 10° NW 23:47:31 47° WSW 23:47:56 47° SW
CZ-2D R/B 4.4 23:50:50 10° ENE 23:52:39 12° E 23:53:55 11° E
